This is the latest recevied weather packets stored in our database for station/object KB0BS-13. If no packets are shown the sender has not sent any weather packets the latest 10 day(s).
| Time | Temp. | Humidity | Pressure | Rain* | Wind** | Luminosity | Snow |
|---|---|---|---|---|---|---|---|
| 1777677934 | 4.44° C | 62% | 1017.6 hPa | 0 mm | - | 104 W/m² | - |
| 1777677631 | 4.44° C | 62% | 1017.6 hPa | 0 mm | - | 113 W/m² | - |
| 1777677329 | 4.44° C | 60% | 1017.5 hPa | 0 mm | - | 112 W/m² | - |
| 1777677027 | 4.44° C | 59% | 1017.5 hPa | 0 mm | - | 112 W/m² | - |
| 1777676726 | 4.44° C | 60% | 1017.5 hPa | 0 mm | - | 125 W/m² | - |
| 1777676423 | 4.44° C | 59% | 1017.4 hPa | 0 mm | - | 126 W/m² | - |
| 1777676121 | 4.44° C | 59% | 1017.3 hPa | 0 mm | - | 132 W/m² | - |
| 1777675816 | 5° C | 59% | 1017.2 hPa | 0 mm | - | 142 W/m² | - |
| 1777675514 | 4.44° C | 58% | 1017.2 hPa | 0 mm | - | 159 W/m² | - |
| 1777675211 | 4.44° C | 59% | 1017.1 hPa | 0 mm | - | 171 W/m² | - |
| 1777674907 | 4.44° C | 57% | 1017.1 hPa | 0 mm | - | 187 W/m² | - |
| 1777674604 | 5° C | 60% | 1017.1 hPa | 0 mm | - | 197 W/m² | - |
| 1777674301 | 4.44° C | 59% | 1017.2 hPa | 0 mm | - | 217 W/m² | - |
| 1777673997 | 5° C | 57% | 1017.1 hPa | 0 mm | - | 160 W/m² | - |
| 1777673693 | 5° C | 57% | 1017.1 hPa | 0 mm | - | 264 W/m² | - |
| 1777673391 | 5.56° C | 57% | 1017.2 hPa | 0 mm | - | 289 W/m² | - |
| 1777673089 | 5° C | 58% | 1017.1 hPa | 0 mm | - | 325 W/m² | - |
| 1777672784 | 5° C | 56% | 1017 hPa | 0 mm | - | 296 W/m² | - |
| 1777672482 | 5° C | 58% | 1017.1 hPa | 0 mm | - | 354 W/m² | - |
| 1777672177 | 4.44° C | 58% | 1017.2 hPa | 0 mm | - | 208 W/m² | - |
| 1777671873 | 4.44° C | 59% | 1016.9 hPa | 0 mm | - | 272 W/m² | - |
| 1777671568 | 4.44° C | 58% | 1017 hPa | 0 mm | - | 211 W/m² | - |
| 1777671266 | 4.44° C | 57% | 1017.1 hPa | 0 mm | - | 313 W/m² | - |
| 1777670961 | 5° C | 58% | 1016.9 hPa | 0 mm | - | 257 W/m² | - |
| 1777670658 | 5° C | 56% | 1017 hPa | 0 mm | - | 377 W/m² | - |
* Rain latest hour (hover to see other rain measurements)
** Current wind speed in m/s (hover to see current wind gust speed)